This demonstration page uses our WeatherBlox Daily Observations layout. Learn more.

Left ArrowRight Arrow

41.12389, -100.76542

Hourly Observations for July 29, 2016

Temp ( °F °C ) Dew Point ( °F °C ) Humidity (%) Winds ( mph kmh ) Pressure ( in mb ) Visibility ( mi km ) Precip ( " mm )
12:53 am 00:53 Clear 60 15.6 58 14.4 93 93 Calm 30.08 1019 10 16 0.00 0.00
1:53 am 01:53 Clear 59 15 57 13.9 93 93 Calm 30.10 1019 10 16 0.00 0.00
2:53 am 02:53 Clear 58 14.4 57 13.9 97 97 N 3 6 30.09 1019 10 16 0.00 0.00
3:53 am 03:53 Clear 57 13.9 56 13.3 96 96 N 3 6 30.06 1018 10 16 0.00 0.00
4:50 am 04:50 Mostly Clear with Mist and Fog 57 14 55 13 94 94 Calm 30.06 1018 4 6 0.00 0.00
4:53 am 04:53 Mostly Clear with Mist and Fog 57 13.9 56 13.3 96 96 Calm 30.04 1017 4 6 0.00 0.00
5:30 am 05:30 Mostly Cloudy with Mist and Fog 58 14.4 57 13.9 97 97 Calm 30.06 1018 3 4 0.00 0.00
5:32 am 05:32 Mostly Cloudy with Mist and Fog 57 14 57 14 100 100 Calm 30.06 1018 1 2 0.00 0.00
5:40 am 05:40 Mostly Cloudy with Fog 59 15 57 14 94 94 Calm 30.03 1017 1 1 0.00 0.00
5:53 am 05:53 Mostly Cloudy with Fog 59 15 58 14.4 96 96 Calm 30.05 1018 0 0 0.00 0.00
6:21 am 06:21 Mostly Cloudy with Fog 60 15.6 59 15 96 96 Calm 30.06 1018 0 0 0.00 0.00
6:53 am 06:53 Mostly Cloudy with Fog 60 15.6 58 14.4 93 93 Calm 30.06 1018 0 0 0.00 0.00
7:08 am 07:08 Mostly Cloudy with Fog 60 15.6 58 14.4 93 93 Calm 30.06 1018 1 1 0.00 0.00
7:29 am 07:29 Mostly Cloudy with Fog 61 16 61 16 100 100 Calm 30.06 1018 0 0 0.00 0.00
7:39 am 07:39 Mostly Cloudy with Fog 63 17 61 16 94 94 Calm 30.06 1018 5 8 0.00 0.00
7:53 am 07:53 Mostly Cloudy with Fog 62 16.7 60 15.6 93 93 NNE 3 6 30.06 1018 5 8 0.00 0.00
8:24 am 08:24 Mostly Cloudy with Fog 63 17 61 16 94 94 Calm 30.06 1018 0 0 0.00 0.00
8:44 am 08:44 Mostly Cloudy with Fog 63 17 61 16 94 94 Calm 30.06 1018 1 1 0.00 0.00
8:53 am 08:53 Cloudy with Mist and Fog 63 17.2 61 16.1 93 93 Calm 30.08 1019 1 2 0.00 0.00
9:16 am 09:16 Mostly Cloudy with Mist and Fog 63 17 63 17 100 100 Calm 30.09 1019 1 1 0.00 0.00
9:30 am 09:30 Cloudy with Mist and Fog 64 17.8 63 17.2 96 96 Calm 30.09 1019 2 2 0.00 0.00
9:36 am 09:36 Cloudy with Mist and Fog 65 18.3 63 17.2 93 93 Calm 30.06 1018 3 5 0.00 0.00
9:53 am 09:53 Cloudy 66 18.9 63 17.2 90 90 Calm 30.09 1019 10 16 0.00 0.00
10:15 am 10:15 Mostly Cloudy 69 20.6 63 17.2 81 81 Calm 30.06 1018 10 16 0.00 0.00
10:22 am 10:22 Partly Cloudy 70 21.1 64 17.8 82 82 VRB 3 6 30.03 1017 10 16 0.00 0.00
10:53 am 10:53 Sunny 73 22.8 64 17.8 74 74 E 3 6 30.07 1018 10 16 0.00 0.00
11:53 am 11:53 Partly Cloudy 75 23.9 62 16.7 64 64 S 3 6 30.07 1018 10 16 0.00 0.00
12:53 pm 12:53 Sunny 77 25 63 17.2 62 62 W 6 9 30.06 1018 10 16 0.00 0.00
1:53 pm 13:53 Partly Cloudy 79 26.1 63 17.2 58 58 W 3 6 30.04 1017 10 16 0.00 0.00
2:53 pm 14:53 Partly Cloudy 79 26.1 63 17.2 58 58 VRB 6 9 30.03 1017 10 16 0.00 0.00
3:53 pm 15:53 Sunny 82 27.8 58 14.4 44 44 Calm 29.99 1016 10 16 0.00 0.00
4:53 pm 16:53 Sunny 83 28.3 61 16.1 48 48 S 3 6 29.98 1015 10 16 0.00 0.00
5:53 pm 17:53 Sunny 81 27.2 58 14.4 45 45 Calm 29.98 1015 10 16 0.00 0.00
6:53 pm 18:53 Sunny 78 25.6 66 18.9 67 67 Calm 29.98 1015 10 16 0.00 0.00
7:53 pm 19:53 Sunny 76 24.4 67 19.4 74 74 ESE 6 9 29.98 1015 10 16 0.00 0.00
8:53 pm 20:53 Sunny 71 21.7 66 18.9 84 84 ESE 7 11 29.98 1015 10 16 0.00 0.00
9:53 pm 21:53 Clear 70 21.1 66 18.9 87 87 E 6 9 29.98 1015 10 16 0.00 0.00
10:53 pm 22:53 Clear 68 20 66 18.9 93 93 ESE 6 9 29.99 1016 10 16 0.00 0.00
11:53 pm 23:53 Clear 68 20 65 18.3 90 90 ESE 7 11 29.98 1015 10 16 0.00 0.00

Powered by AerisWeather